TimeCDT,TemperatureF,Dew PointF,Humidity,Sea Level PressureIn,VisibilityMPH,Wind Direction,Wind SpeedMPH,Gust SpeedMPH,PrecipitationIn,Events,Conditions,WindDirDegrees,DateUTC
12:15 AM,73.4,66.2,78,29.78,10.0,SSE,15.0,18.4,N/A,,Scattered Clouds,160,2013-05-21 05:15:00
12:35 AM,75.2,66.2,73,29.77,10.0,South,12.7,23.0,N/A,,Mostly Cloudy,190,2013-05-21 05:35:00
12:55 AM,71.6,64.4,78,29.78,10.0,WSW,9.2,31.1,N/A,Thunderstorm,Overcast,250,2013-05-21 05:55:00
1:15 AM,66.2,60.8,83,29.81,10.0,West,15.0,26.5,N/A,Rain-Thunderstorm,Light Thunderstorms and Rain,280,2013-05-21 06:15:00
1:35 AM,64.4,62.6,94,29.78,2.5,WNW,10.4,-,0.35,Rain-Thunderstorm,Heavy Thunderstorms and Rain,300,2013-05-21 06:35:00
1:55 AM,64.4,62.6,94,29.81,7.0,Calm,Calm,-,0.40,Rain,Rain,0,2013-05-21 06:55:00
2:15 AM,64.4,62.6,94,29.80,10.0,SSE,3.5,-,N/A,Rain,Light Rain,160,2013-05-21 07:15:00
2:35 AM,64.4,62.6,94,29.79,10.0,SSE,5.8,-,N/A,,Mostly Cloudy,150,2013-05-21 07:35:00
2:55 AM,64.4,62.6,94,29.78,10.0,SSE,9.2,-,N/A,,Light Drizzle,150,2013-05-21 07:55:00
3:15 AM,64.4,62.6,94,29.74,10.0,SE,9.2,-,N/A,,Drizzle,140,2013-05-21 08:15:00
3:35 AM,64.4,62.6,94,29.75,10.0,SSE,10.4,-,N/A,,Scattered Clouds,160,2013-05-21 08:35:00
3:55 AM,64.4,62.6,94,29.75,10.0,SSE,6.9,-,N/A,,Scattered Clouds,160,2013-05-21 08:55:00
4:15 AM,62.6,60.8,94,29.75,10.0,South,4.6,-,N/A,,Scattered Clouds,170,2013-05-21 09:15:00
4:35 AM,62.6,60.8,94,29.74,10.0,SSE,3.5,-,N/A,,Clear,160,2013-05-21 09:35:00
4:55 AM,62.6,60.8,94,29.78,10.0,South,9.2,-,N/A,,Clear,170,2013-05-21 09:55:00
5:15 AM,62.6,60.8,94,29.79,10.0,South,9.2,-,N/A,,Clear,170,2013-05-21 10:15:00
5:35 AM,62.6,60.8,94,29.79,10.0,South,10.4,-,N/A,,Clear,170,2013-05-21 10:35:00
5:55 AM,62.6,60.8,94,29.79,10.0,South,8.1,-,N/A,,Clear,170,2013-05-21 10:55:00
6:15 AM,62.6,60.8,94,29.78,10.0,South,9.2,-,N/A,,Clear,170,2013-05-21 11:15:00
6:35 AM,64.4,60.8,88,29.78,10.0,South,10.4,-,N/A,,Scattered Clouds,170,2013-05-21 11:35:00
6:55 AM,64.4,60.8,88,29.78,10.0,South,11.5,-,N/A,,Scattered Clouds,170,2013-05-21 11:55:00
7:15 AM,64.4,60.8,88,29.77,10.0,South,12.7,19.6,N/A,,Clear,170,2013-05-21 12:15:00
7:35 AM,64.4,62.6,94,29.78,10.0,South,11.5,19.6,N/A,,Clear,180,2013-05-21 12:35:00
7:55 AM,66.2,62.6,88,29.78,10.0,South,10.4,-,N/A,,Clear,190,2013-05-21 12:55:00
8:15 AM,66.2,62.6,88,29.79,10.0,South,12.7,18.4,N/A,,Clear,180,2013-05-21 13:15:00
8:35 AM,68.0,62.6,83,29.80,10.0,South,15.0,21.9,N/A,,Clear,180,2013-05-21 13:35:00
8:55 AM,68.0,62.6,83,29.80,10.0,South,18.4,21.9,N/A,,Scattered Clouds,180,2013-05-21 13:55:00
9:15 AM,68.0,62.6,83,29.80,10.0,South,17.3,24.2,N/A,,Scattered Clouds,190,2013-05-21 14:15:00
9:35 AM,69.8,64.4,83,29.80,10.0,SSW,21.9,26.5,N/A,,Scattered Clouds,200,2013-05-21 14:35:00
9:55 AM,69.8,64.4,83,29.79,10.0,SSW,17.3,-,N/A,,Scattered Clouds,210,2013-05-21 14:55:00
10:15 AM,71.6,64.4,78,29.79,10.0,SSW,17.3,26.5,N/A,,Mostly Cloudy,200,2013-05-21 15:15:00
10:35 AM,71.6,64.4,78,29.79,10.0,SSW,24.2,31.1,N/A,,Mostly Cloudy,200,2013-05-21 15:35:00
10:55 AM,73.4,64.4,73,29.78,10.0,SSW,19.6,28.8,N/A,,Mostly Cloudy,200,2013-05-21 15:55:00
11:15 AM,73.4,64.4,73,29.78,10.0,SSW,20.7,26.5,N/A,,Scattered Clouds,200,2013-05-21 16:15:00
11:35 AM,75.2,64.4,69,29.78,10.0,SSW,18.4,29.9,N/A,,Clear,200,2013-05-21 16:35:00
11:55 AM,77.0,64.4,65,29.77,10.0,South,20.7,27.6,N/A,,Clear,190,2013-05-21 16:55:00
12:15 PM,77.0,64.4,65,29.77,10.0,South,20.7,27.6,N/A,,Scattered Clouds,190,2013-05-21 17:15:00
12:35 PM,77.0,64.4,65,29.76,10.0,SW,20.7,28.8,N/A,,Scattered Clouds,220,2013-05-21 17:35:00
12:55 PM,77.0,64.4,65,29.76,10.0,SSW,20.7,28.8,N/A,,Overcast,210,2013-05-21 17:55:00
1:15 PM,77.0,64.4,65,29.78,10.0,SW,18.4,21.9,N/A,,Overcast,220,2013-05-21 18:15:00
1:35 PM,77.0,64.4,65,29.76,10.0,SW,17.3,28.8,N/A,,Mostly Cloudy,230,2013-05-21 18:35:00
1:55 PM,78.8,66.2,65,29.76,10.0,SW,19.6,25.3,N/A,,Mostly Cloudy,230,2013-05-21 18:55:00
2:15 PM,80.6,66.2,61,29.76,10.0,SW,15.0,21.9,N/A,,Scattered Clouds,220,2013-05-21 19:15:00
2:35 PM,80.6,64.4,58,29.75,10.0,SW,13.8,28.8,N/A,,Scattered Clouds,220,2013-05-21 19:35:00
2:55 PM,80.6,66.2,61,29.75,10.0,SW,18.4,24.2,N/A,,Scattered Clouds,230,2013-05-21 19:55:00
3:15 PM,80.6,64.4,58,29.76,10.0,SW,13.8,21.9,N/A,,Mostly Cloudy,230,2013-05-21 20:15:00
3:35 PM,80.6,64.4,58,29.75,10.0,SW,18.4,21.9,N/A,,Scattered Clouds,230,2013-05-21 20:35:00
3:55 PM,82.4,62.6,51,29.74,10.0,SW,16.1,24.2,N/A,,Clear,220,2013-05-21 20:55:00
4:15 PM,82.4,60.8,48,29.74,10.0,SW,15.0,21.9,N/A,,Clear,220,2013-05-21 21:15:00
4:35 PM,82.4,60.8,48,29.73,10.0,SSW,21.9,26.5,N/A,,Scattered Clouds,210,2013-05-21 21:35:00
4:55 PM,82.4,59.0,45,29.72,10.0,SW,18.4,24.2,N/A,,Scattered Clouds,230,2013-05-21 21:55:00
5:15 PM,82.4,59.0,45,29.72,10.0,SW,13.8,21.9,N/A,,Clear,220,2013-05-21 22:15:00
5:35 PM,80.6,59.0,48,29.72,10.0,SW,16.1,-,N/A,,Clear,220,2013-05-21 22:35:00
5:55 PM,80.6,60.8,51,29.71,10.0,SW,15.0,20.7,N/A,,Clear,220,2013-05-21 22:55:00
6:15 PM,80.6,59.0,48,29.71,10.0,SW,17.3,20.7,N/A,,Clear,230,2013-05-21 23:15:00
6:35 PM,80.6,60.8,51,29.71,10.0,SW,13.8,18.4,N/A,,Clear,220,2013-05-21 23:35:00
6:55 PM,78.8,60.8,54,29.71,10.0,SW,8.1,-,N/A,,Clear,220,2013-05-21 23:55:00
7:15 PM,78.8,59.0,51,29.71,10.0,SW,10.4,17.3,N/A,,Clear,220,2013-05-22 00:15:00
7:35 PM,77.0,60.8,57,29.71,10.0,SW,5.8,-,N/A,,Clear,220,2013-05-22 00:35:00
7:55 PM,73.4,60.8,65,29.71,10.0,SSW,5.8,-,N/A,,Clear,210,2013-05-22 00:55:00
8:15 PM,73.4,60.8,65,29.72,10.0,SSW,6.9,-,N/A,,Clear,200,2013-05-22 01:15:00
8:35 PM,73.4,62.6,69,29.73,10.0,SSW,6.9,-,N/A,,Clear,200,2013-05-22 01:35:00
8:55 PM,73.4,62.6,69,29.74,10.0,SSW,6.9,-,N/A,,Scattered Clouds,210,2013-05-22 01:55:00
9:15 PM,71.6,62.6,73,29.75,10.0,SSW,6.9,-,N/A,,Mostly Cloudy,200,2013-05-22 02:15:00
9:35 PM,71.6,62.6,73,29.75,10.0,SSW,5.8,-,N/A,,Overcast,200,2013-05-22 02:35:00
9:55 PM,73.4,62.6,69,29.76,10.0,South,11.5,-,N/A,,Mostly Cloudy,190,2013-05-22 02:55:00
10:15 PM,71.6,62.6,73,29.75,10.0,South,12.7,-,N/A,,Mostly Cloudy,180,2013-05-22 03:15:00
10:35 PM,71.6,62.6,73,29.74,10.0,South,12.7,17.3,N/A,,Mostly Cloudy,180,2013-05-22 03:35:00
10:55 PM,71.6,62.6,73,29.73,10.0,South,12.7,17.3,N/A,,Overcast,180,2013-05-22 03:55:00
11:15 PM,71.6,62.6,73,29.73,10.0,South,11.5,-,N/A,,Mostly Cloudy,180,2013-05-22 04:15:00
11:35 PM,71.6,64.4,78,29.73,10.0,South,9.2,-,N/A,,Mostly Cloudy,190,2013-05-22 04:35:00
11:55 PM,71.6,64.4,78,29.73,10.0,South,6.9,-,N/A,,Overcast,180,2013-05-22 04:55:00